Time,TemperatureF,DewpointF,PressureIn,WindDirection,WindDirectionDegrees,WindSpeedMPH,WindSpeedGustMPH,Humidity,HourlyPrecipIn,Conditions,Clouds,dailyrainin,SoftwareType,DateUTC
2013-02-07 00:01:00,50.0,22.0,30.16,NE,40,0.0,1.0,33,0.00,,,0.00,,2013-02-07 00:01:00,
2013-02-07 00:11:00,50.0,22.0,30.16,NE,40,0.0,1.0,33,0.00,,,0.00,,2013-02-07 00:11:00,
2013-02-07 00:21:00,50.0,23.0,30.16,NE,40,0.0,1.0,34,0.00,,,0.00,,2013-02-07 00:21:00,
2013-02-07 00:32:00,49.0,22.0,30.15,NE,40,0.0,1.0,34,0.00,,,0.00,,2013-02-07 00:32:00,
2013-02-07 00:42:00,49.0,22.0,30.15,NE,40,0.0,1.0,34,0.00,,,0.00,,2013-02-07 00:42:00,
2013-02-07 00:52:00,49.0,23.0,30.16,NE,40,0.0,1.0,35,0.00,,,0.00,,2013-02-07 00:52:00,
2013-02-07 01:01:00,49.0,23.0,30.16,NE,40,0.0,2.0,35,0.00,,,0.00,,2013-02-07 01:01:00,
2013-02-07 01:11:00,49.0,23.0,30.16,NE,40,0.0,2.0,35,0.00,,,0.00,,2013-02-07 01:11:00,
2013-02-07 01:21:00,49.0,23.0,30.15,NE,40,0.0,1.0,35,0.00,,,0.00,,2013-02-07 01:21:00,
2013-02-07 01:32:00,47.0,23.0,30.15,NE,40,0.0,0.0,38,0.00,,,0.00,,2013-02-07 01:32:00,
2013-02-07 01:42:00,47.0,23.0,30.15,NE,40,0.0,0.0,38,0.00,,,0.00,,2013-02-07 01:42:00,
2013-02-07 01:52:00,48.0,22.0,30.15,NE,40,0.0,0.0,36,0.00,,,0.00,,2013-02-07 01:52:00,
2013-02-07 02:01:00,48.0,22.0,30.15,NE,40,0.0,1.0,36,0.00,,,0.00,,2013-02-07 02:01:00,
2013-02-07 02:11:00,48.0,22.0,30.15,NE,40,0.0,1.0,36,0.00,,,0.00,,2013-02-07 02:11:00,
2013-02-07 02:21:00,48.0,23.0,30.15,NE,40,0.0,2.0,37,0.00,,,0.00,,2013-02-07 02:21:00,
2013-02-07 02:32:00,47.0,23.0,30.19,NE,40,0.0,0.0,38,0.00,,,0.00,,2013-02-07 02:32:00,
2013-02-07 02:42:00,47.0,23.0,30.19,NE,40,0.0,0.0,38,0.00,,,0.00,,2013-02-07 02:42:00,
2013-02-07 02:51:00,47.0,23.0,30.19,NE,40,0.0,0.0,38,0.00,,,0.00,,2013-02-07 02:51:00,
2013-02-07 03:02:00,47.0,23.0,30.18,NE,40,0.0,1.0,38,0.00,,,0.00,,2013-02-07 03:02:00,
2013-02-07 03:11:00,47.0,22.0,30.18,NE,40,0.0,1.0,37,0.00,,,0.00,,2013-02-07 03:11:00,
2013-02-07 03:21:00,47.0,22.0,30.18,NE,40,0.0,1.0,37,0.00,,,0.00,,2013-02-07 03:21:00,
2013-02-07 03:31:00,47.0,23.0,30.17,NE,40,0.0,1.0,38,0.00,,,0.00,,2013-02-07 03:31:00,
2013-02-07 03:42:00,47.0,23.0,30.17,NE,40,0.0,1.0,38,0.00,,,0.00,,2013-02-07 03:42:00,
2013-02-07 03:52:00,47.0,23.0,30.16,NE,40,0.0,0.0,38,0.00,,,0.00,,2013-02-07 03:52:00,
2013-02-07 04:01:00,47.0,23.0,30.16,NE,40,0.0,1.0,38,0.00,,,0.00,,2013-02-07 04:01:00,
2013-02-07 04:11:00,47.0,23.0,30.16,NE,40,0.0,1.0,38,0.00,,,0.00,,2013-02-07 04:11:00,
2013-02-07 04:22:00,46.0,23.0,30.15,NE,40,0.0,0.0,40,0.00,,,0.00,,2013-02-07 04:22:00,
2013-02-07 04:32:00,46.0,23.0,30.14,NE,40,0.0,0.0,40,0.00,,,0.00,,2013-02-07 04:32:00,
2013-02-07 04:42:00,46.0,23.0,30.14,NE,40,0.0,0.0,40,0.00,,,0.00,,2013-02-07 04:42:00,
2013-02-07 04:53:00,45.0,23.0,30.15,NE,40,0.0,0.0,42,0.00,,,0.00,,2013-02-07 04:53:00,
2013-02-07 05:02:00,44.0,24.0,30.14,NE,40,0.0,0.0,45,0.00,,,0.00,,2013-02-07 05:02:00,
2013-02-07 05:12:00,44.0,24.0,30.14,NE,40,0.0,0.0,45,0.00,,,0.00,,2013-02-07 05:12:00,
2013-02-07 05:21:00,43.0,26.0,30.15,NE,40,0.0,1.0,50,0.00,,,0.00,,2013-02-07 05:21:00,
2013-02-07 05:32:00,42.0,26.0,30.15,NE,40,0.0,2.0,53,0.00,,,0.00,,2013-02-07 05:32:00,
2013-02-07 05:42:00,42.0,26.0,30.15,NE,40,0.0,2.0,53,0.00,,,0.00,,2013-02-07 05:42:00,
2013-02-07 05:52:00,41.0,25.0,30.14,NE,40,0.0,0.0,53,0.00,,,0.00,,2013-02-07 05:52:00,
2013-02-07 06:02:00,41.0,26.0,30.14,NE,40,0.0,0.0,55,0.00,,,0.00,,2013-02-07 06:02:00,
2013-02-07 06:11:00,41.0,26.0,30.14,NE,40,0.0,0.0,55,0.00,,,0.00,,2013-02-07 06:11:00,
2013-02-07 06:22:00,42.0,27.0,30.13,NE,40,0.0,2.0,54,0.00,,,0.00,,2013-02-07 06:22:00,
2013-02-07 06:32:00,41.0,27.0,30.13,NE,40,0.0,0.0,57,0.00,,,0.00,,2013-02-07 06:32:00,
2013-02-07 06:43:00,41.0,27.0,30.13,NE,40,0.0,0.0,57,0.00,,,0.00,,2013-02-07 06:43:00,
2013-02-07 06:52:00,40.0,26.0,30.12,NE,40,0.0,1.0,57,0.00,,,0.00,,2013-02-07 06:52:00,
2013-02-07 07:01:00,40.0,28.0,30.12,NE,40,0.0,0.0,61,0.00,,,0.00,,2013-02-07 07:01:00,
2013-02-07 07:11:00,39.0,27.0,30.13,NE,40,0.0,0.0,63,0.00,,,0.00,,2013-02-07 07:11:00,
2013-02-07 07:22:00,39.0,27.0,30.13,NE,40,0.0,0.0,63,0.00,,,0.00,,2013-02-07 07:22:00,
2013-02-07 07:32:00,40.0,28.0,30.13,NE,40,0.0,2.0,61,0.00,,,0.00,,2013-02-07 07:32:00,
2013-02-07 07:42:00,40.0,28.0,30.13,NE,40,0.0,2.0,61,0.00,,,0.00,,2013-02-07 07:42:00,
2013-02-07 07:52:00,40.0,27.0,30.12,NE,40,0.0,0.0,60,0.00,,,0.00,,2013-02-07 07:52:00,
2013-02-07 08:01:00,40.0,27.0,30.12,NE,40,0.0,0.0,59,0.00,,,0.00,,2013-02-07 08:01:00,
2013-02-07 08:11:00,40.0,27.0,30.12,NE,40,0.0,0.0,59,0.00,,,0.00,,2013-02-07 08:11:00,
2013-02-07 08:21:00,39.0,27.0,30.13,NE,40,0.0,0.0,63,0.00,,,0.00,,2013-02-07 08:21:00,
2013-02-07 08:32:00,39.0,27.0,30.14,NE,40,0.0,1.0,63,0.00,,,0.00,,2013-02-07 08:32:00,
2013-02-07 08:42:00,39.0,27.0,30.14,NE,40,0.0,1.0,63,0.00,,,0.00,,2013-02-07 08:42:00,
2013-02-07 08:52:00,39.0,28.0,30.14,NE,40,0.0,0.0,64,0.00,,,0.00,,2013-02-07 08:52:00,
2013-02-07 09:02:00,39.0,29.0,30.15,NE,40,0.0,1.0,66,0.00,,,0.00,,2013-02-07 09:02:00,
2013-02-07 09:11:00,39.0,28.0,30.15,NE,40,0.0,1.0,64,0.00,,,0.00,,2013-02-07 09:11:00,
2013-02-07 09:21:00,39.0,28.0,30.15,NE,40,0.0,1.0,64,0.00,,,0.00,,2013-02-07 09:21:00,
2013-02-07 09:32:00,40.0,28.0,30.15,NE,40,0.0,0.0,63,0.00,,,0.00,,2013-02-07 09:32:00,
2013-02-07 09:42:00,40.0,28.0,30.15,NE,40,0.0,0.0,63,0.00,,,0.00,,2013-02-07 09:42:00,
2013-02-07 09:52:00,40.0,28.0,30.15,NE,40,0.0,2.0,62,0.00,,,0.00,,2013-02-07 09:52:00,
2013-02-07 10:02:00,40.0,28.0,30.14,NE,40,0.0,1.0,62,0.00,,,0.00,,2013-02-07 10:02:00,
2013-02-07 10:11:00,40.0,28.0,30.14,NE,40,0.0,1.0,62,0.00,,,0.00,,2013-02-07 10:11:00,
2013-02-07 10:22:00,40.0,29.0,30.14,West,263,0.0,3.0,64,0.00,,,0.00,,2013-02-07 10:22:00,
2013-02-07 10:32:00,41.0,30.0,30.13,West,263,0.0,2.0,65,0.00,,,0.00,,2013-02-07 10:32:00,
2013-02-07 10:42:00,41.0,30.0,30.13,West,263,0.0,2.0,65,0.00,,,0.00,,2013-02-07 10:42:00,
2013-02-07 10:51:00,40.0,29.0,30.13,West,263,0.0,1.0,65,0.00,,,0.00,,2013-02-07 10:51:00,
2013-02-07 11:01:00,40.0,30.0,30.13,SSW,192,0.0,3.0,66,0.00,,,0.00,,2013-02-07 11:01:00,
2013-02-07 11:11:00,40.0,30.0,30.13,SSW,192,0.0,3.0,66,0.00,,,0.00,,2013-02-07 11:11:00,
2013-02-07 11:23:00,40.0,29.0,30.13,SSW,192,0.0,2.0,64,0.00,,,0.00,,2013-02-07 11:23:00,
2013-02-07 11:32:00,39.0,29.0,30.13,SSW,192,0.0,0.0,68,0.00,,,0.00,,2013-02-07 11:32:00,
2013-02-07 11:44:00,39.0,29.0,30.13,SSW,192,0.0,0.0,68,0.00,,,0.00,,2013-02-07 11:44:00,
2013-02-07 11:53:00,39.0,29.0,30.14,SSW,192,0.0,0.0,68,0.00,,,0.00,,2013-02-07 11:53:00,
2013-02-07 12:02:00,38.0,29.0,30.14,SSW,192,0.0,2.0,69,0.00,,,0.00,,2013-02-07 12:02:00,
2013-02-07 12:11:00,38.0,29.0,30.14,SSW,192,0.0,2.0,69,0.00,,,0.00,,2013-02-07 12:11:00,
2013-02-07 12:22:00,38.0,29.0,30.14,SSW,192,0.0,0.0,69,0.00,,,0.00,,2013-02-07 12:22:00,
2013-02-07 12:33:00,38.0,29.0,30.13,SSW,192,0.0,1.0,70,0.00,,,0.00,,2013-02-07 12:33:00,
2013-02-07 12:53:00,38.0,29.0,30.13,SSW,192,0.0,0.0,71,0.00,,,0.00,,2013-02-07 12:53:00,
2013-02-07 13:03:00,38.0,30.0,30.14,SSW,192,0.0,1.0,72,0.00,,,0.00,,2013-02-07 13:03:00,
2013-02-07 13:12:00,38.0,30.0,30.14,SSW,192,0.0,1.0,72,0.00,,,0.00,,2013-02-07 13:12:00,
2013-02-07 13:22:00,38.0,30.0,30.14,SSW,192,0.0,1.0,72,0.00,,,0.00,,2013-02-07 13:22:00,
2013-02-07 13:32:00,39.0,31.0,30.13,SSW,192,0.0,2.0,72,0.00,,,0.00,,2013-02-07 13:32:00,
2013-02-07 13:42:00,39.0,31.0,30.13,SSW,192,0.0,2.0,72,0.00,,,0.00,,2013-02-07 13:42:00,
2013-02-07 13:52:00,39.0,30.0,30.13,SSW,192,0.0,1.0,71,0.00,,,0.00,,2013-02-07 13:52:00,
2013-02-07 14:01:00,39.0,31.0,30.12,SSW,192,0.0,0.0,72,0.00,,,0.00,,2013-02-07 14:01:00,
2013-02-07 14:11:00,39.0,31.0,30.12,SSW,192,0.0,0.0,72,0.00,,,0.00,,2013-02-07 14:11:00,
2013-02-07 14:22:00,40.0,32.0,30.11,SSW,192,0.0,0.0,72,0.00,,,0.00,,2013-02-07 14:22:00,
2013-02-07 14:32:00,40.0,32.0,30.13,SSW,192,0.0,0.0,72,0.00,,,0.00,,2013-02-07 14:32:00,
2013-02-07 14:42:00,40.0,32.0,30.13,SSW,192,0.0,0.0,72,0.00,,,0.00,,2013-02-07 14:42:00,
2013-02-07 14:52:00,40.0,32.0,30.13,SSW,192,0.0,2.0,72,0.00,,,0.00,,2013-02-07 14:52:00,
2013-02-07 15:02:00,42.0,33.0,30.11,SSW,192,0.0,0.0,70,0.00,,,0.00,,2013-02-07 15:02:00,
2013-02-07 15:11:00,42.0,33.0,30.11,SSW,192,0.0,0.0,70,0.00,,,0.00,,2013-02-07 15:11:00,
2013-02-07 15:22:00,42.0,32.0,30.11,SSW,192,0.0,2.0,68,0.00,,,0.00,,2013-02-07 15:22:00,
2013-02-07 15:32:00,43.0,33.0,30.11,SSW,192,0.0,1.0,68,0.00,,,0.00,,2013-02-07 15:32:00,
2013-02-07 15:42:00,43.0,33.0,30.11,SSW,192,0.0,1.0,68,0.00,,,0.00,,2013-02-07 15:42:00,
2013-02-07 15:52:00,44.0,33.0,30.10,East,94,0.0,1.0,65,0.00,,,0.00,,2013-02-07 15:52:00,
2013-02-07 16:01:00,45.0,34.0,30.10,East,94,0.0,2.0,66,0.00,,,0.00,,2013-02-07 16:01:00,
2013-02-07 16:11:00,45.0,34.0,30.10,East,94,0.0,2.0,66,0.00,,,0.00,,2013-02-07 16:11:00,
2013-02-07 16:22:00,45.0,34.0,30.10,ENE,69,0.0,2.0,65,0.00,,,0.00,,2013-02-07 16:22:00,
2013-02-07 16:32:00,46.0,34.0,30.09,ENE,69,0.0,0.0,63,0.00,,,0.00,,2013-02-07 16:32:00,
2013-02-07 16:42:00,46.0,34.0,30.09,ENE,69,0.0,0.0,63,0.00,,,0.00,,2013-02-07 16:42:00,
2013-02-07 16:52:00,45.0,32.0,30.09,ENE,68,0.0,2.0,61,0.00,,,0.00,,2013-02-07 16:52:00,
2013-02-07 17:01:00,47.0,33.0,30.07,ENE,68,0.0,1.0,58,0.00,,,0.00,,2013-02-07 17:01:00,
2013-02-07 17:11:00,47.0,33.0,30.07,ESE,106,0.0,2.0,58,0.00,,,0.00,,2013-02-07 17:11:00,
2013-02-07 17:21:00,47.0,33.0,30.07,ESE,106,0.0,2.0,58,0.00,,,0.00,,2013-02-07 17:21:00,
2013-02-07 17:32:00,49.0,34.0,30.06,ESE,107,0.0,0.0,55,0.00,,,0.00,,2013-02-07 17:32:00,
2013-02-07 17:43:00,49.0,34.0,30.06,ESE,107,0.0,0.0,55,0.00,,,0.00,,2013-02-07 17:43:00,
2013-02-07 17:52:00,50.0,34.0,30.06,ESE,106,0.0,1.0,54,0.00,,,0.00,,2013-02-07 17:52:00,
2013-02-07 18:02:00,50.0,34.0,30.05,ESE,106,0.0,0.0,54,0.00,,,0.00,,2013-02-07 18:02:00,
2013-02-07 18:11:00,50.0,34.0,30.05,ESE,106,0.0,0.0,54,0.00,,,0.00,,2013-02-07 18:11:00,
2013-02-07 18:23:00,51.0,34.0,30.03,ESE,106,0.0,0.0,52,0.00,,,0.00,,2013-02-07 18:23:00,
2013-02-07 18:32:00,52.0,35.0,30.03,ESE,107,0.0,1.0,52,0.00,,,0.00,,2013-02-07 18:32:00,
2013-02-07 18:42:00,52.0,35.0,30.03,ESE,107,0.0,1.0,52,0.00,,,0.00,,2013-02-07 18:42:00,
2013-02-07 18:52:00,52.0,34.0,30.03,SE,135,0.0,2.0,50,0.00,,,0.00,,2013-02-07 18:52:00,
2013-02-07 19:01:00,53.0,34.0,30.03,WNW,295,1.0,2.0,49,0.00,,,0.00,,2013-02-07 19:01:00,
2013-02-07 19:11:00,53.0,34.0,30.03,WNW,295,1.0,2.0,49,0.00,,,0.00,,2013-02-07 19:11:00,
2013-02-07 19:22:00,53.0,35.0,30.03,WNW,295,0.0,3.0,50,0.00,,,0.00,,2013-02-07 19:22:00,
2013-02-07 19:32:00,54.0,35.0,30.02,WNW,295,0.0,0.0,48,0.00,,,0.00,,2013-02-07 19:32:00,
2013-02-07 19:42:00,54.0,35.0,30.02,WNW,295,0.0,0.0,48,0.00,,,0.00,,2013-02-07 19:42:00,
2013-02-07 19:52:00,54.0,35.0,30.02,WNW,295,0.0,1.0,48,0.00,,,0.00,,2013-02-07 19:52:00,
2013-02-07 20:01:00,54.0,34.0,30.01,WNW,295,0.0,1.0,47,0.00,,,0.00,,2013-02-07 20:01:00,
2013-02-07 20:11:00,54.0,34.0,30.01,WNW,295,0.0,1.0,47,0.00,,,0.00,,2013-02-07 20:11:00,
2013-02-07 20:22:00,55.0,35.0,30.00,WNW,295,0.0,1.0,46,0.00,,,0.00,,2013-02-07 20:22:00,
2013-02-07 20:32:00,55.0,35.0,30.00,WNW,295,0.0,1.0,46,0.00,,,0.00,,2013-02-07 20:32:00,
2013-02-07 20:42:00,55.0,35.0,30.00,WNW,295,0.0,1.0,46,0.00,,,0.00,,2013-02-07 20:42:00,
2013-02-07 20:52:00,55.0,35.0,29.99,WNW,295,0.0,3.0,46,0.00,,,0.00,,2013-02-07 20:52:00,
2013-02-07 21:02:00,54.0,35.0,29.99,NE,39,2.0,4.0,49,0.00,,,0.00,,2013-02-07 21:02:00,
2013-02-07 21:11:00,54.0,35.0,29.99,NE,39,2.0,4.0,49,0.00,,,0.00,,2013-02-07 21:11:00,
2013-02-07 21:22:00,54.0,37.0,29.98,SSE,154,2.0,7.0,53,0.00,,,0.00,,2013-02-07 21:22:00,
2013-02-07 21:32:00,54.0,38.0,29.98,North,355,1.0,10.0,55,0.00,,,0.00,,2013-02-07 21:32:00,
2013-02-07 21:42:00,54.0,38.0,29.98,North,355,1.0,10.0,55,0.00,,,0.00,,2013-02-07 21:42:00,
2013-02-07 21:52:00,54.0,39.0,29.98,ENE,77,5.0,10.0,57,0.00,,,0.00,,2013-02-07 21:52:00,
2013-02-07 22:02:00,53.0,40.0,29.98,East,98,6.0,13.0,61,0.00,,,0.00,,2013-02-07 22:02:00,
2013-02-07 22:11:00,52.0,39.0,29.97,NE,55,3.0,13.0,61,0.00,,,0.00,,2013-02-07 22:11:00,
2013-02-07 22:21:00,52.0,39.0,29.97,NE,55,3.0,13.0,61,0.00,,,0.00,,2013-02-07 22:21:00,
2013-02-07 22:32:00,52.0,40.0,29.97,ESE,107,4.0,8.0,63,0.00,,,0.00,,2013-02-07 22:32:00,
2013-02-07 22:42:00,52.0,40.0,29.97,ESE,107,4.0,8.0,63,0.00,,,0.00,,2013-02-07 22:42:00,
2013-02-07 22:51:00,52.0,40.0,29.96,NE,38,1.0,7.0,63,0.00,,,0.00,,2013-02-07 22:51:00,
2013-02-07 23:01:00,52.0,39.0,29.96,West,271,1.0,6.0,62,0.00,,,0.00,,2013-02-07 23:01:00,
2013-02-07 23:11:00,52.0,39.0,29.96,West,271,1.0,6.0,62,0.00,,,0.00,,2013-02-07 23:11:00,
2013-02-07 23:21:00,52.0,39.0,29.96,NNE,20,4.0,7.0,62,0.00,,,0.00,,2013-02-07 23:21:00,
2013-02-07 23:32:00,52.0,39.0,29.96,NNE,28,2.0,6.0,61,0.00,,,0.00,,2013-02-07 23:32:00,
2013-02-07 23:42:00,52.0,39.0,29.96,NNE,28,2.0,6.0,61,0.00,,,0.00,,2013-02-07 23:42:00,
2013-02-07 23:52:00,52.0,39.0,29.96,WNW,292,2.0,5.0,62,0.00,,,0.00,,2013-02-07 23:52:00,